Find Himawari-7

NORAD ID: 28937 Int'l Des: 2006-004 Owner: JCAB/JMA Country: J operational
HEOCIRCULAR

Live-Position

3D-Globus wird geladen...

Über Himawari-7

Beschreibung wird geladen...

Nächste Überflüge

Passes for default location (London). Set your location on the main map for personalized predictions.

Höhenverlauf

Loading altitude history...

Zweizeiliger Elementsatz

1 28937U 06004A 26134.90669431 .00000008 00000-0 00000-0 0 9991
2 28937 5.6979 73.4461 0006240 172.3221 41.2851 0.99073725 73892
Epoch: 14. Mai 2026 • Age: 32 hours

Aktueller Status

Höhe 36150.2 km
Geschwindigkeit 3.06 km/s
Subsatellitenpunkt -2.98°S, 82.4°E
Startdatum 18. Feb. 2006
Alter 20.2 years
Typ weather

Technische Details

Klassifizierung Payload
Masse 4650.00 kg
Trockenmasse 1700.00 kg
Gesamtmasse 4650.00 kg
Länge 6.00 m
Durchmesser 4.00 m
Spannweite 30.00 m
Form Box + Pan + Ant
Hersteller MELCO
Bus-Typ DS-2000
Phasenstatus In Orbit
Besitzer/Staat JCAB/JMA/J

Most Searched